Location: Aiyekoto
(8.4333°N, 4.3667°E)
Time: 13:57:19
(UTC+00:00)

SL-16 R/B - Pass Details

Date: 07 June 2020
Orbit: 840 x 850 km, 71.0° (Epoch: 07 July)

Event Time Altitude Azimuth Distance (km) Brightness Sun altitude
Exits shadow 03:52:43 17° 181° (S) 2,024 3.9 -21.1°
Maximum altitude 03:57:05 59° 105° (ESE) 959 2.6 -20.1°
Drops below altitude 10° 04:02:36 10° 26° (NNE) 2,450 5.4 -18.9°
Sets 04:05:04 0° 23° (NNE) 3,385 6.1 -18.4°
